Location: Boussac
(44.2782°N, 2.3665°E)
Time: 15:35:47
(UTC+00:00)

Terra - Pass Details

Date: 15 May 2026
Orbit: 689 x 690 km, 97.9° (Epoch: 10 June)

Event Time Altitude Azimuth Distance (km) Brightness Sun altitude
Exits shadow 19:45:49 - 153° (SSE) 2,673 4.3 -6.2°
Reaches altitude 10° 19:47:09 10° 151° (SSE) 2,136 3.8 -6.4°
Maximum altitude 19:51:44 58° 73° (ENE) 810 2.0 -7.1°
Drops below altitude 10° 19:56:21 10° 355° (N) 2,153 5.0 -7.7°
Sets 19:58:38 0° 351° (N) 3,074 5.9 -8.1°
